x

Central Aleutians 230nm Sw Dutch Harbor (46072) Wave Buoy

2:50am - Fri 1st Jul 2016 All times are UTC.

  • Sig Wave height 4.6ft
  • Swell Direction
  • Peak Period 7s
  • Average Period 7s
  • Wind
    2mph, 4mph gusts
  • Sea Temp 50°f
  • Air Temp 48°f
  • Sea Pressure 1009.3mb

More Historic Weather Station data

Upgrade to MSW Pro to gain access to the past 30 days of data for over 8000 Wavebouys and Weather Stations around the globe.

Join Pro

Comparision Forecast

View Surf forecast
   
Fri 07/01 2:50am 4.5ft 7s 7s 2 4 mph 1009.3mb 50f 48f
1:50am 4.5ft 7s 7s 4 7 mph 1008.9mb 51f 48f
Thu 06/30 11:50pm 4.5ft 8s 7s 4 7 mph 1009mb 50f 48f
10:50pm 4.5ft 7s 7s 4 7 mph 1008.8mb 50f 48f
9:50pm 4.5ft 7s 7s 4 7 mph 1008.9mb 50f 47f
8:50pm 4.5ft 7s 6s 4 7 mph 1008.9mb 50f 47f
7:50pm 5ft 8s 7s 7
mph
1008.8mb 50f 48f
6:50pm 5ft 7s 6s 4 7 mph 1008.5mb 50f 47f
5:50pm 5ft 6s 6s 4 7 mph 1008.3mb 50f 47f
4:50pm 5ft 8s 6s 7 9 mph 1008.1mb 50f 48f
3:50pm 5ft 6s 6s 9 11 mph 1007.9mb 49f 48f
2:50pm 5ft 8s 6s 7
mph
1007.9mb 49f 48f
1:50pm 5ft 7s 6s 4 7 mph 1007.9mb 49f 48f
12:50pm 4.5ft 8s 6s 7 9 mph 1007.8mb 49f 48f
11:50am 5ft 6s 6s 7 9 mph 1007.9mb 49f 48f
10:50am 5ft 8s 6s 7 9 mph 1007.9mb 50f 48f
9:50am 5ft 6s 6s 11 13 mph 1007.9mb 50f 48f
8:50am 5ft 6s 6s 11 13 mph 1007.4mb 50f 48f
7:50am 5ft 6s 6s 13 16 mph 1007.1mb 50f 48f
6:50am 5ft 6s 6s 16 18 mph 1006.6mb 50f 48f
5:50am 5ft 6s 6s 16 18 mph 1006.2mb 50f 48f
4:50am 5ft 8s 6s 16 18 mph 1005.5mb 50f 48f
3:50am 4.5ft 7s 5s 16 18 mph 1005.4mb 50f 48f
2:50am 4.5ft 8s 5s 18 20 mph 1005.4mb 50f 48f
1:50am 4.5ft 7s 6s 18 20 mph 1005mb 50f 49f
12:50am 4.5ft 8s 6s 16 18 mph 1004.9mb 50f 49f
Wed 06/29 11:50pm 4ft 8s 6s 13 16 mph 1004.7mb 50f 49f
10:50pm 3.5ft 6s 6s 11 13 mph 1004.6mb 50f 49f
9:50pm 4.5ft 7s 7s 7 9 mph 1004.4mb 50f 49f
8:50pm 4.5ft 7s 7s 7 9 mph 1004.2mb 50f 49f
7:50pm 4ft 8s 7s 7 9 mph 1004.2mb 50f 49f
6:50pm 3.5ft 15s 6s 4 7 mph 1004mb 50f 49f
5:50pm 4.5ft 6s 6s 4 7 mph 1003.8mb 50f 49f
4:50pm 4.5ft 6s 6s 7 9 mph 1003.7mb 49f 49f
3:50pm 4ft 7s 6s 9 11 mph 1003.6mb 50f 49f
2:50pm 4ft 15s 6s 4 7 mph 1003.6mb 50f 48f
1:50pm 4ft 15s 6s 4 7 mph 1003.7mb 50f 48f
12:50pm 3.5ft 9s 6s 9 11 mph 1003.8mb 50f 48f
11:50am 3.5ft 6s 6s 7 9 mph 1004.4mb 50f 49f
10:50am 4ft 10s 7s 4 7 mph 1004.8mb 50f 49f
9:50am 4ft 10s 7s 2 4 mph 1004.9mb 50f 49f
7:50am 3.5ft 9s 6s 2 4 mph 1005mb 51f 49f
6:50am 4.5ft 10s 7s 4
mph
1005mb 51f 49f
5:50am 4.5ft 9s 6s  -  2 mph 1005.1mb 51f 49f
4:50am 4.5ft 15s 6s 2
mph
1005.4mb 51f 49f
3:50am 4.5ft 8s 6s 4 7 mph 1005.9mb 51f 49f
2:50am 4.5ft 9s 6s 2 4 mph 1006.1mb 51f 50f
1:50am 4.5ft 9s 6s 2 4 mph 1006.5mb 51f 50f
12:50am 4ft 10s 6s 4 7 mph 1006.4mb 50f 50f
Tue 06/28 11:50pm 4ft 9s 6s 2 4 mph 1006.4mb 50f 50f
10:50pm 4ft 10s 7s 7
mph
1007.2mb 50f 49f
9:50pm 3.5ft 10s 6s 7
mph
1007.4mb 50f 49f
8:50pm 4ft 10s 6s 9 11 mph 1007.6mb 50f 49f
7:50pm 3.5ft 10s 6s 7 9 mph 1007.8mb 50f 48f
6:50pm 4ft 10s 6s 7 9 mph 1008mb 50f 48f
5:50pm 3.5ft 10s 6s 7 9 mph 1008.1mb 50f 48f
4:50pm 4ft 10s 6s 7 9 mph 1008.3mb 49f 48f
3:50pm 4ft 10s 6s 9 11 mph 1008.4mb 49f 48f
2:50pm 4ft 9s 5s 11 13 mph 1008.3mb 49f 48f
1:50pm 4ft 11s 6s 13
mph
1009mb 50f 49f
12:50pm 4.5ft 9s 5s 13 18 mph 1009.2mb 50f 49f
11:50am 4.5ft 9s 5s 16 18 mph 1009.6mb 50f 49f
10:50am 4ft 9s 6s 18 20 mph 1010.1mb 50f 50f
9:50am 4ft 10s 6s 18 20 mph 1010.7mb 50f 50f
8:50am 3.5ft 10s 7s 16 18 mph 1011.5mb 50f 49f
7:50am 3.5ft 10s 6s 16 18 mph 1011.9mb 50f 49f
6:50am 3.5ft 10s 6s 16 18 mph 1012mb 50f 49f
5:50am 3.5ft 11s 6s 13 16 mph 1012.5mb 50f 48f
4:50am 3.5ft 11s 6s 13 16 mph 1012.9mb 50f 48f
3:50am 3.5ft 16s 6s 13 16 mph 1013.5mb 50f 48f
2:50am 3ft 16s 6s 11 13 mph 1014.1mb 50f 48f
1:50am 3.5ft 14s 6s 13
mph
1014.8mb 49f 48f
12:50am 3.5ft 15s 6s 13 16 mph 1014.9mb 49f 48f
Mon 06/27 11:50pm 3.5ft 15s 6s 13 16 mph 1015.6mb 49f 48f
10:50pm 3ft 16s 6s 11 13 mph 1016mb 49f 48f
9:50pm 3.5ft 14s 6s 11 13 mph 1017mb 49f 48f
8:50pm 3ft 15s 6s 16 18 mph 1016.4mb 49f 48f
7:50pm 3ft 15s 6s 13 16 mph 1017mb 49f 48f
6:50pm 3.5ft 16s 6s 13 16 mph 1017.2mb 49f 48f
5:50pm 3.5ft 16s 6s 16 18 mph 1017.2mb 49f 48f
4:50pm 3ft 15s 6s 13 16 mph 1017.7mb 49f 47f
3:50pm 3ft 16s 6s 13
mph
1017.9mb 49f 47f
2:50pm 3ft 15s 5s 13 16 mph 1017.9mb 49f 47f
1:50pm 3ft 15s 6s 13 16 mph 1018.2mb 49f 47f
12:50pm 3ft 16s 6s 11 13 mph 1018.9mb 49f 47f
11:50am 3ft 16s 6s 13 16 mph 1019mb 49f 47f
10:50am 3ft 10s 6s 11 13 mph 1019.4mb 49f 46f
9:50am 2.5ft 16s 6s 13
mph
1019.8mb 49f 46f
8:50am 2.5ft 15s 6s 13 16 mph 1019.9mb 50f 46f
7:50am 2.5ft 16s 7s 11 13 mph 1020mb 50f 45f
6:50am 3ft 16s 7s 11 13 mph 1020.1mb 50f 45f
5:50am 3ft 16s 7s 11 13 mph 1020.1mb 50f 45f
4:50am 3ft 10s 7s 11
mph
1020.4mb 50f 45f
3:50am 3ft 16s 7s 9 11 mph 1020.7mb 50f 44f